EW5492 Weather Reports


time (UTC)temp
F
wind
direction
speed
knots
gust
knots
rain 1hr
in
rain 24hr
in
rain mn
in
humidity
%
barometer
mb
20260510171500 63 203 2.6 7.0 0.00 0.21 0.00 69 1012.4
20260510170100 61 134 1.7 3.5 0.00 0.21 0.00 75 1012.7
20260510164603 61 339 0.0 3.5 0.00 0.24 0.00 78 1012.8
20260510163102 62 15 0.9 3.5 0.00 0.24 0.00 76 1012.4
20260510161549 59 344 0.9 1.7 0.00 0.24 0.00 80 1012.5
20260510160048 59 344 0.0 1.7 0.00 0.24 0.00 79 1012.4
20260510154545 59 70 0.0 2.6 0.00 0.30 0.24 80 1012.3
20260510153022 58 95 0.0 1.7 0.00 0.30 0.24 83 1012.4
20260510151519 58 96 0.9 3.5 0.00 0.30 0.24 81 1012.3
20260510150011 59 290 0.9 2.6 0.00 0.30 0.24 79 1012.2
20260510144511 58 183 0.9 4.3 0.00 0.34 0.24 83 1012.1
20260510143005 58 117 0.9 3.5 0.00 0.34 0.24 81 1012.1
20260510141507 58 80 1.7 3.5 0.00 0.34 0.24 81 1012.0
20260510140100 57 201 0.9 5.2 0.00 0.34 0.24 83 1012.0
20260510134557 57 119 0.9 5.2 0.00 0.34 0.24 87 1012.1
20260510133053 55 158 0.9 2.6 0.00 0.34 0.24 89 1012.2
20260510131550 54 130 0.9 2.6 0.00 0.34 0.24 91 1012.4
20260510130044 53 336 0.0 2.6 0.00 0.34 0.24 92 1012.4
20260510124547 53 318 0.0 2.6 0.00 0.34 0.24 93 1012.0
20260510123041 52 197 0.0 3.5 0.00 0.34 0.24 94 1012.4
20260510121538 52 177 0.9 2.6 0.00 0.34 0.24 95 1012.4
20260510120035 51 238 0.0 2.6 0.00 0.34 0.24 95 1012.3
20260510114532 51 97 0.9 3.5 0.00 0.34 0.24 96 1012.4
20260510113038 51 159 0.0 1.7 0.00 0.34 0.24 96 1012.0
20260510111529 50 159 0.0 1.7 0.00 0.34 0.24 96 1011.9
20260510110039 50 159 0.0 2.6 0.00 0.34 0.24 96 1012.0
20260510104554 50 161 0.0 1.7 0.00 0.34 0.24 96 1012.0
20260510103055 49 167 0.0 1.7 0.00 0.34 0.24 96 1011.6
20260510101520 49 167 0.0 2.6 0.00 0.34 0.24 96 1011.5
20260510100017 49 268 0.0 2.6 0.00 0.34 0.24 96 1010.8
20260510094520 48 265 0.0 0.9 0.00 0.34 0.24 96 1010.4
20260510093014 48 265 0.0 0.9 0.00 0.34 0.24 96 1010.4
20260510091514 48 265 0.0 1.7 0.00 0.34 0.24 96 1010.7
20260510090014 48 265 0.0 0.9 0.00 0.34 0.24 95 1010.6
20260510084510 48 265 0.0 0.0 0.00 0.34 0.24 95 1010.5
20260510083007 48 265 0.0 0.0 0.00 0.34 0.24 95 1011.0
20260510081506 48 265 0.0 0.0 0.00 0.34 0.24 95 1011.1
20260510080013 48 265 0.0 0.9 0.00 0.34 0.24 95 1011.0
20260510074503 47 265 0.0 0.9 0.00 0.34 0.24 95 1011.1
20260510073003 48 265 0.0 0.9 0.00 0.34 0.24 95 1011.2
20260510071502 48 265 0.0 0.9 0.00 0.34 0.24 95 1011.0
20260510070002 48 265 0.0 0.0 0.00 0.34 0.24 95 1010.9
20260510064600 49 265 0.0 0.0 0.00 0.34 0.24 95 1011.0
20260510063100 49 265 0.0 1.7 0.00 0.34 0.24 95 1011.4
20260510061559 48 265 0.0 0.0 0.00 0.34 0.24 95 1011.1
20260510060100 49 265 0.0 0.9 0.00 0.34 0.24 95 1011.2
20260510054556 49 265 0.0 2.6 0.00 0.34 0.24 95 1011.0
20260510053058 48 139 0.9 1.7 0.00 0.34 0.24 95 1010.9
20260510051605 49 139 0.0 0.9 0.00 0.34 0.24 95 1011.5
20260510050105 49 139 0.0 0.0 0.00 0.34 0.24 95 1011.5
20260510044549 49 139 0.0 0.9 0.00 0.34 0.24 95 1011.8
20260510043050 49 139 0.0 0.9 0.00 0.34 0.24 95 1011.8
20260510041551 49 139 0.0 1.7 0.00 0.34 0.24 95 1011.6
20260510040048 49 139 0.0 0.9 0.00 0.34 0.24 95 1011.7
20260510034545 49 139 0.0 0.0 0.00 0.34 0.24 95 1011.8
20260510033053 49 139 0.0 0.9 0.00 0.34 0.24 95 1011.7
20260510031547 48 139 0.0 0.9 0.00 0.34 0.24 95 1011.8
20260510030044 48 139 0.0 0.9 0.00 0.34 0.24 95 1011.8
20260510024539 48 139 0.0 1.7 0.00 0.34 0.24 95 1012.0
20260510023038 48 139 0.0 0.9 0.00 0.34 0.24 95 1011.8
20260510021620 48 139 0.0 0.9 0.00 0.34 0.24 95 1012.1
20260510020136 48 139 0.0 0.9 0.00 0.34 0.24 95 1012.3
20260510014546 48 139 0.0 0.0 0.00 0.34 0.24 94 1012.2
20260510013034 48 139 0.0 0.0 0.00 0.34 0.24 94 1012.4
20260510011532 48 139 0.0 0.9 0.00 0.34 0.24 94 1012.2
20260510010042 48 139 0.0 0.0 0.00 0.34 0.24 94 1012.2
20260510004529 48 139 0.0 0.9 0.00 0.34 0.24 94 1012.2
20260510003029 48 139 0.0 0.9 0.00 0.34 0.24 94 1012.0
20260510001528 48 139 0.0 0.9 0.00 0.34 0.24 94 1011.9
20260510000028 48 139 0.0 0.0 0.00 0.34 0.24 94 1011.7
20260509234557 48 139 0.0 0.9 0.00 0.34 0.24 94 1011.5
20260509233054 49 139 0.0 0.9 0.00 0.34 0.24 94 1011.4
20260509231519 49 139 0.0 0.0 0.00 0.34 0.24 94 1011.4
20260509230024 48 139 0.0 0.0 0.00 0.34 0.24 94 1011.6
20260509224509 48 139 0.0 0.9 0.00 0.34 0.24 94 1011.5
20260509223008 48 139 0.0 0.0 0.00 0.34 0.24 94 1011.5
20260509221507 48 139 0.0 0.9 0.00 0.34 0.24 93 1011.6
20260509220006 48 139 0.0 0.9 0.00 0.34 0.24 93 1011.8
20260509214504 48 142 0.0 0.9 0.00 0.34 0.24 93 1011.8
20260509213116 48 142 0.0 0.0 0.01 0.34 0.24 93 1012.0
20260509211605 48 142 0.0 1.7 0.01 0.34 0.24 93 1012.1
20260509204556 48 195 0.0 0.9 0.02 0.34 0.24 93 1012.2
20260509203055 48 195 0.0 0.9 0.03 0.33 0.23 93 1012.3
20260509201603 48 195 0.0 0.9 0.04 0.33 0.23 92 1012.2
20260509200055 48 195 0.0 0.9 0.05 0.32 0.22 93 1012.3
20260509194557 48 150 0.0 2.6 0.05 0.32 0.22 92 1012.4
20260509193046 48 269 0.0 1.7 0.05 0.30 0.20 93 1012.5
20260509191549 47 254 0.0 4.3 0.05 0.28 0.19 92 1012.6
20260509190046 47 323 0.0 1.7 0.04 0.27 0.17 92 1012.7
20260509184540 47 19 0.9 4.3 0.06 0.26 0.16 92 1012.9
20260509183013 47 193 0.0 1.7 0.08 0.25 0.15 93 1013.0
20260509181508 47 132 0.0 0.9 0.09 0.24 0.14 93 1013.0
20260509180003 47 132 0.0 1.7 0.08 0.22 0.12 93 1013.2
20260509174600 46 103 0.0 0.9 0.08 0.20 0.10 92 1013.4
20260509173107 46 103 0.0 1.7 0.07 0.18 0.08 92 1013.4
20260509171557 46 103 0.0 1.7 0.05 0.15 0.05 91 1013.5